Flag for Canada Weather past 2 weeks in Niagara Falls, Ontario, Canada

Now
32 °F

Light snow. Ice fog.


Feels Like: 23 °F
Forecast: 15 / 34 °F
Wind: 12 mph from Southwest

Location: Niagara Falls International Airport

Current Time: Jan 29, 2015 at 3:51:19 PM

Latest Report: Jan 29, 2015 at 2:55 PM


Visibility: 1 mi

Pressure: 29.74 "Hg

Humidity: 88%

Dew point: 29 °F

Location of Niagara FallsLocation

Historic Weather in Niagara Falls — Graph

°F

Niagara Falls temperature yesterday

Maximum temperature yesterday: 24 °F (at 2:53 PM)
Minimum temperature yesterday: 1 °F (at 1:53 AM)
Average temperature yesterday: 13 °F

Past Weeks' High & Low Weather Summary

 TemperatureHumidityPressure
High44 °F (Jan 18, 3:53 AM)93% (Jan 24, 4:53 PM)30.43 "Hg (Jan 24, 4:53 PM)
Low0 °F (Jan 17, 5:53 AM)41% (Jan 29, 10:53 AM)29.51 "Hg (Jan 24, 1:01 PM)
Average21 °F73%30.05 "Hg
* Reported Jan 14 2:53 PM — Jan 29 2:00 PM, Niagara Falls, Weather by CustomWeather, © 2014

Note: Actual official high and low records may vary slightly from our data, if they occured in-between our weather recording intervals... More about our weather records

Advertising

Niagara Falls weather history for previous 24 hours

 ConditionsComfort  
Time TempWeatherWind HumidityBarometerVisibility
2:00 PM
Jan 29
33 °FLight snow. Mostly cloudy.10 mph66%29.74 "Hg3 mi
1:53 PM34 °FLight snow. More clouds than sun.13 mph61%29.80 "Hg4 mi
12:53 PM35 °FCloudy.13 mph44%29.81 "Hg10 mi
11:53 AM33 °FMore clouds than sun.6 mph41%29.86 "Hg10 mi
10:53 AM31 °FMore clouds than sun.8 mph41%29.92 "Hg10 mi
9:53 AM28 °FCloudy.9 mph45%29.99 "Hg10 mi
8:53 AM24 °FMostly cloudy.6 mph50%30.05 "Hg10 mi
7:53 AM21 °FOvercast.8 mph55%30.11 "Hg10 mi
7:00 AM20 °FOvercast.6 mph57%30.08 "Hg10 mi
5:53 AM17 °FOvercast.7 mph64%30.17 "Hg10 mi
4:53 AM15 °FOvercast.6 mph70%30.22 "Hg10 mi
3:53 AM13 °FPassing clouds.5 mph77%30.26 "Hg10 mi
2:53 AM13 °FClear.3 mph81%30.28 "Hg10 mi
1:53 AM15 °FClear.5 mph80%30.29 "Hg10 mi
12:53 AM16 °FClear.5 mph84%30.31 "Hg10 mi
11:53 PM
Jan 28
15 °FClear.7 mph83%30.32 "Hg10 mi
10:53 PM15 °FPassing clouds.7 mph83%30.34 "Hg10 mi
9:53 PM15 °FPassing clouds.7 mph83%30.35 "Hg10 mi
8:53 PM15 °FPassing clouds.5 mph74%30.37 "Hg10 mi
7:53 PM14 °FPassing clouds.7 mph77%30.38 "Hg10 mi
6:53 PM16 °FPassing clouds.6 mph71%30.38 "Hg10 mi
5:53 PM18 °FPassing clouds.6 mph71%30.38 "Hg10 mi
4:53 PM20 °FPassing clouds.9 mph62%30.37 "Hg10 mi
3:53 PM23 °FPassing clouds.9 mph55%30.36 "Hg10 mi
Weather by CustomWeather, © 2014

See weather overviewHow to use our weather pages